Theta_e
283 283 284 283 283 283 282 283 284 285 286 288 289 291 293 296 301 308 312 316 320 321 322 322 322 321 320 326 329 329 329 330 332 330 330 328 329 329 329 329 329 328 329
281 281 282 281 281 281 281 281 282 284 285 285 287 288 289 291 293 295 297 301 306 305 305 312 308 316 318 319 323 328 328 328 329 332 328 327 328 328 328 328 328 326 326
280 280 280 280 280 280 280 280 281 282 284 285 285 286 287 287 288 290 291 292 293 294 296 297 297 300 304 311 311 314 317 322 328 329 329 327 326 326 328 327 327 325 326
281 280 279 279 279 279 279 279 280 281 282 284 284 284 285 286 286 286 286 287 288 288 290 291 292 293 294 296 300 301 305 307 312 319 327 323 322 319 319 316 323 323 324
281 281 280 279 279 278 279 279 279 279 281 282 283 283 284 284 285 285 285 284 284 285 285 287 288 288 288 289 291 292 298 297 299 301 302 302 297 296 296 298 302 306 309
281 281 280 280 279 278 278 278 278 279 279 280 282 282 282 283 283 282 283 283 283 282 283 283 285 285 286 287 289 289 290 290 291 292 293 292 290 290 291 293 296 299 307
281 280 280 280 279 279 278 278 278 278 278 279 279 281 281 281 282 282 281 281 280 281 281 282 282 283 284 285 285 287 286 286 286 287 286 286 287 285 290 289 291 293 295
280 280 279 279 279 278 278 278 278 278 277 276 277 278 280 279 279 280 280 279 279 279 280 280 280 281 281 283 284 283 283 283 283 283 283 283 283 284 285 286 287 290 294
280 279 279 278 278 278 277 277 277 277 278 276 275 276 277 278 278 277 278 278 277 277 277 278 279 279 279 280 282 282 281 281 281 282 282 283 283 283 285 287 286 288 292
280 279 279 278 278 277 277 277 277 277 277 277 276 275 276 275 277 276 275 276 275 275 275 275 277 277 278 277 278 278 278 278 279 281 281 281 282 282 283 283 283 286 287
279 279 279 279 278 278 278 277 276 276 276 276 276 275 274 275 274 275 274 273 274 274 274 273 274 274 275 275 274 274 275 276 277 278 278 278 279 279 280 281 281 282 284
279 278 278 277 278 278 278 278 277 276 276 276 276 276 275 274 274 273 273 272 272 272 272 272 272 272 271 272 272 272 274 274 275 275 276 276 277 277 277 278 279 281 282
278 277 276 276 276 277 278 278 277 277 276 276 276 276 276 275 274 273 273 272 270 270 270 270 270 270 269 269 270 269 269 270 272 273 274 274 274 275 277 277 278 279 281
277 277 276 275 276 275 276 276 276 276 276 275 275 275 276 276 275 274 273 272 271 270 269 269 268 269 268 268 268 268 268 268 269 270 271 272 273 274 275 276 277 278 280
277 276 275 275 274 274 274 275 275 275 275 275 275 274 275 276 275 274 273 272 271 269 269 269 269 269 269 268 268 267 267 267 267 268 269 270 272 273 274 275 276 277 278
276 275 275 274 274 274 274 273 273 273 273 274 274 274 274 274 274 274 273 272 271 269 270 269 268 269 268 268 267 267 266 266 266 266 267 268 269 271 272 274 275 276 276
275 275 274 274 274 274 273 273 273 273 273 273 273 273 273 273 273 273 272 271 271 271 270 270 269 268 268 268 267 266 266 265 265 265 266 266 267 268 270 272 273 274 275
274 274 274 274 273 273 273 273 273 273 273 273 272 272 272 272 273 272 272 271 272 271 271 271 270 269 268 268 267 266 265 265 265 264 265 264 265 266 269 270 271 272 272
274 274 273 273 273 273 273 273 273 273 273 272 272 271 270 271 271 271 271 270 270 271 271 271 270 270 269 268 267 266 265 264 264 264 264 264 264 265 266 268 269 270 271
274 274 273 272 272 272 272 272 272 271 271 271 270 268 268 269 269 269 269 269 269 269 269 270 270 270 269 268 268 267 266 266 265 264 264 263 263 264 265 267 268 269 270
273 272 272 272 271 271 271 270 270 269 269 269 268 266 266 266 267 267 267 266 266 266 266 267 268 269 270 269 268 268 267 266 265 264 264 263 263 263 264 266 266 268 269
272 271 271 270 270 268 268 268 267 267 267 266 265 265 264 265 265 265 265 264 263 264 264 264 265 266 267 268 268 267 266 265 265 264 263 262 263 263 264 265 265 266 267
270 269 269 268 267 266 266 265 265 265 264 263 262 262 262 262 262 263 262 261 261 261 261 261 262 263 265 265 265 267 266 265 264 263 262 262 262 263 263 264 264 265 266
268 268 267 266 265 264 263 263 262 262 261 261 260 260 260 260 260 260 259 259 259 260 260 260 260 261 262 263 264 265 266 265 264 262 262 261 261 262 262 263 263 264 265
267 266 264 263 263 262 261 261 260 259 259 259 259 258 258 258 259 258 258 257 257 258 259 259 260 261 262 264 264 265 265 265 264 263 262 261 261 261 262 262 263 263 265
265 264 263 262 261 260 259 259 258 258 257 257 257 257 257 257 257 256 256 256 256 257 258 258 260 261 262 263 263 265 265 264 264 263 262 261 261 261 261 261 262 263 264
Wind_Speed
25 25 26 29 31 31 31 31 33 35 36 37 36 36 32 27 16 7 12 14 17 13 13 17 22 19 16 21 32 33 34 30 12 11 15 24 19 20 21 22 22 25 28
24 22 25 29 33 33 32 33 36 36 44 43 42 42 37 37 32 30 23 13 8 9 8 5 4 11 16 7 9 22 28 31 29 14 13 14 17 20 20 21 22 20 21
24 25 27 30 34 36 35 36 38 37 44 52 46 45 43 40 38 38 36 34 30 27 21 19 15 9 7 9 5 9 4 8 19 25 10 14 17 16 14 14 13 14 14
23 25 27 29 29 31 35 37 40 43 44 43 48 45 45 46 43 43 42 39 38 34 31 31 35 29 25 18 17 14 9 7 5 4 8 3 4 5 6 3 5 8 10
21 24 25 25 27 31 37 34 39 43 43 41 41 42 43 49 46 41 46 46 43 39 36 31 35 36 41 40 34 29 25 16 12 17 15 7 9 11 8 6 1 6 4
22 23 23 26 28 31 32 34 39 41 42 41 40 40 47 46 45 44 43 45 46 44 35 37 37 40 35 40 44 46 39 26 29 22 16 13 15 10 13 12 4 4 2
21 23 24 25 28 29 30 33 35 36 34 36 40 41 45 41 40 37 38 45 44 41 41 35 46 40 37 37 37 41 43 40 36 29 24 21 13 19 16 11 10 4 1
20 22 24 25 26 27 29 30 29 29 33 34 37 36 38 42 37 31 33 44 35 41 41 39 41 42 39 31 31 36 34 38 35 30 29 25 24 19 16 6 10 11 10
18 19 22 23 24 26 28 28 27 26 29 32 31 35 38 40 41 40 34 32 35 36 39 45 45 42 38 35 31 27 27 31 24 25 24 24 24 24 21 16 23 16 6
15 15 15 19 22 23 24 24 24 26 26 27 33 35 36 36 41 40 37 34 36 34 36 37 36 34 33 33 30 25 24 24 24 24 24 24 24 25 23 21 14 11 6
12 14 15 15 17 18 18 22 23 24 26 27 29 33 36 38 38 39 38 32 27 27 29 30 31 29 30 30 30 30 23 18 21 20 20 21 22 23 23 18 17 7 5
11 13 14 16 16 16 18 17 20 21 23 23 24 24 28 30 35 38 36 35 30 28 26 24 25 25 25 27 27 27 25 22 19 20 20 20 20 20 19 18 16 14 5
11 13 14 14 15 16 17 17 18 20 21 21 22 22 24 26 28 29 30 28 29 29 26 25 24 27 25 25 26 27 26 22 19 19 18 18 18 17 16 17 15 14 8
11 11 13 15 14 15 15 16 18 19 19 20 21 21 21 22 24 26 26 26 26 26 24 23 22 21 24 24 27 27 26 23 20 19 17 17 16 17 16 16 15 16 11
10 11 12 12 14 14 16 17 15 18 19 18 19 20 21 22 23 23 23 23 21 18 19 21 23 22 22 24 24 24 24 24 24 22 20 19 19 19 19 17 16 15 14
9 10 10 11 12 11 12 12 15 15 17 19 19 20 18 19 19 20 19 18 17 14 16 17 17 17 18 20 21 21 22 22 22 21 20 19 18 18 19 16 15 15 15
9 8 9 9 9 10 10 10 11 13 15 16 17 16 18 17 19 19 18 15 14 15 17 18 18 18 17 16 17 17 18 18 18 18 17 18 17 17 17 17 16 15 15
10 10 8 8 8 8 8 9 9 11 14 16 18 17 19 19 18 18 19 16 17 16 15 15 15 16 15 15 16 16 16 17 18 19 18 17 17 16 15 15 16 16 17
6 8 10 10 9 9 8 8 9 10 11 13 14 15 19 20 17 17 17 15 15 16 16 15 13 12 10 10 9 10 12 16 17 18 18 18 17 16 15 15 16 17 18
6 9 10 9 8 9 9 9 10 11 11 11 13 15 18 19 19 18 17 16 16 16 16 16 15 14 13 13 14 15 18 17 16 17 18 19 19 17 16 17 16 18 17
7 8 9 7 7 8 9 9 9 9 10 11 11 12 16 12 12 12 13 13 14 15 17 18 18 17 15 15 15 15 15 17 18 18 19 18 17 15 15 15 16 16 17
6 6 5 6 6 7 7 7 7 8 9 10 11 11 15 11 11 11 11 13 14 14 14 15 16 16 14 13 12 13 13 14 15 16 17 17 17 15 15 15 15 16 16
5 5 4 5 5 5 5 6 8 9 8 9 10 11 12 12 12 11 13 14 15 16 17 17 17 17 16 15 12 12 11 11 12 15 17 19 19 18 18 18 18 18 17
5 5 4 4 5 4 7 7 7 7 7 9 11 12 12 12 11 12 15 17 19 20 21 21 19 18 17 17 13 10 10 10 11 11 15 14 15 17 19 19 18 18 18
5 4 4 4 6 7 7 6 6 8 10 11 12 12 12 11 12 15 17 18 19 21 23 21 20 20 19 19 14 9 8 9 10 12 13 12 14 15 15 16 16 18 16
3 3 4 4 6 6 6 6 8 10 11 12 12 12 12 13 14 15 17 17 20 23 21 21 21 21 18 15 11 6 8 9 11 14 16 15 14 14 14 16 15 15 14
Wind_Direction
10 6 7 13 11 10 10 7 11 13 14 23 23 25 20 15 14 322 258 254 255 239 216 216 222 226 242 273 215 228 226 218 219 203 203 204 198 207 216 227 229 236 239
12 11 12 15 20 10 9 10 15 21 28 27 29 32 28 31 32 42 50 53 84 77 66 172 160 166 181 223 223 224 231 228 221 227 194 196 204 216 223 227 227 228 231
16 19 18 18 22 19 9 15 19 22 33 32 28 31 33 35 40 44 49 48 47 52 66 73 64 76 124 106 64 98 86 251 236 232 202 199 205 215 214 214 206 219 240
21 22 21 19 21 22 20 18 25 27 30 32 35 30 36 39 42 46 47 47 45 40 41 58 63 60 60 66 77 66 58 40 28 13 222 119 141 120 139 118 211 222 255
30 29 26 22 22 28 31 24 28 30 31 31 34 37 37 42 42 47 52 48 43 36 31 40 56 60 65 64 66 57 63 48 33 63 42 51 37 31 30 20 355 315 313
31 31 27 29 30 28 30 29 31 31 30 33 35 35 40 39 42 47 54 51 48 42 27 31 38 47 53 63 66 69 70 57 53 52 63 57 50 42 36 5 340 53 29
32 30 29 29 34 30 32 33 33 30 31 33 33 36 39 40 42 46 52 56 49 43 37 29 38 32 41 53 60 66 64 63 66 67 58 46 39 25 35 18 325 71 50
39 35 32 30 33 34 33 36 38 36 36 36 37 39 43 38 39 43 49 56 51 46 40 34 38 32 31 40 47 52 52 54 54 57 61 50 49 43 38 44 355 357 43
43 40 39 39 37 38 36 33 35 36 39 40 40 40 42 38 33 35 43 52 52 46 40 38 35 30 26 35 46 44 47 48 53 60 58 57 50 44 38 31 29 22 30
44 42 41 44 43 42 40 36 36 37 39 39 40 41 41 40 38 38 39 38 43 40 43 39 35 30 30 34 42 43 34 31 37 43 46 46 47 43 40 41 32 37 1
49 46 43 42 41 37 42 40 38 39 40 39 39 38 39 37 37 41 43 48 47 42 41 39 34 30 31 33 37 37 35 27 33 35 32 30 29 31 31 31 32 24 6
58 53 47 44 44 44 44 43 40 40 41 40 39 40 39 38 37 38 39 41 45 49 46 40 36 33 36 36 36 35 40 38 31 30 28 24 17 10 8 17 16 16 353
64 57 49 48 46 45 43 39 38 37 39 38 39 40 38 35 34 34 38 40 40 46 41 39 36 35 32 34 32 35 34 30 27 28 23 13 7 358 359 360 4 8 18
70 61 52 51 53 50 48 43 40 34 34 35 34 35 36 36 34 30 30 29 31 34 33 32 33 30 29 28 27 27 26 24 21 18 10 2 1 3 4 4 354 355 351
71 60 53 53 50 53 52 46 45 45 41 39 36 35 28 31 31 31 31 32 31 31 30 29 29 25 23 23 23 20 18 19 16 9 5 1 359 359 358 356 355 352 349
80 63 56 53 49 50 47 48 49 49 45 45 42 38 35 33 27 28 28 30 27 32 33 34 34 30 27 21 18 17 18 16 11 6 2 359 355 351 349 348 348 347 342
81 66 54 47 41 37 33 29 21 21 36 36 32 29 26 20 19 19 19 18 24 26 25 23 24 23 21 21 21 20 16 12 7 7 3 356 351 347 346 343 342 340 335
80 62 48 32 23 16 13 15 11 8 7 5 12 14 8 7 7 6 3 6 9 13 15 11 10 11 12 12 14 14 13 10 9 7 1 356 352 344 339 339 336 335 333
69 40 22 13 9 7 6 5 3 3 5 3 0 5 4 3 0 359 0 4 354 351 350 350 351 354 356 356 359 5 12 10 7 1 356 354 351 343 334 331 328 326 326
30 12 2 3 4 8 10 9 8 10 8 5 5 4 357 357 357 355 357 356 353 345 339 332 331 333 338 346 354 358 0 354 354 354 354 352 346 342 334 327 325 323 322
2 358 360 15 24 24 21 18 12 6 1 0 2 358 356 356 347 346 346 348 346 343 341 337 332 327 326 334 340 339 338 344 349 351 350 345 341 333 327 324 320 318 319
3 14 27 31 20 22 18 9 3 1 0 357 348 341 346 349 341 335 335 336 337 332 331 332 328 326 314 303 308 316 325 332 339 341 341 340 339 334 326 319 318 315 312
8 20 28 27 28 18 10 12 12 9 359 348 343 339 343 343 344 341 338 336 335 334 333 331 326 325 324 321 300 299 306 317 325 333 336 334 332 330 329 322 317 315 315
15 21 32 26 21 15 18 19 17 3 353 346 345 343 340 339 337 333 336 333 332 331 331 330 327 320 317 321 310 286 293 305 316 321 329 323 320 320 320 320 316 312 311
9 14 22 23 15 15 17 12 359 357 354 351 346 344 344 343 335 333 333 332 330 330 329 329 327 325 319 318 311 275 278 300 313 320 326 319 314 315 314 316 316 315 313
17 22 19 18 16 15 9 2 360 356 351 346 342 340 336 331 329 329 331 331 329 329 329 327 327 328 323 317 313 272 291 304 316 322 329 329 324 323 322 321 321 322 316